TimeCST,TemperatureF,Dew PointF,Humidity,Sea Level PressureIn,VisibilityMPH,Wind Direction,Wind SpeedMPH,Gust SpeedMPH,PrecipitationIn,Events,Conditions,WindDirDegrees,DateUTC
12:15 AM,57.4,26.4,31,30.02,10.0,WSW,12.7,-,N/A,,Clear,240,2014-02-09 06:15:00
12:35 AM,58.1,26.1,29,30.01,10.0,WSW,12.7,-,N/A,,Clear,240,2014-02-09 06:35:00
12:55 AM,58.5,25.7,29,30.02,10.0,WSW,13.8,-,N/A,,Clear,240,2014-02-09 06:55:00
1:15 AM,57.4,26.1,30,30.02,10.0,WSW,12.7,-,N/A,,Clear,240,2014-02-09 07:15:00
1:35 AM,55.8,26.4,32,30.02,10.0,WNW,3.5,-,N/A,,Clear,300,2014-02-09 07:35:00
1:55 AM,46.6,29.8,52,30.03,10.0,Calm,Calm,-,N/A,,Clear,0,2014-02-09 07:55:00
2:15 AM,45.5,32.7,61,30.03,10.0,Calm,Calm,-,N/A,,Clear,0,2014-02-09 08:15:00
2:35 AM,43.0,33.4,69,30.03,10.0,SW,3.5,-,N/A,,Clear,220,2014-02-09 08:35:00
2:55 AM,46.9,31.5,55,30.02,10.0,Calm,Calm,-,N/A,,Clear,0,2014-02-09 08:55:00
3:15 AM,49.8,29.5,46,30.02,10.0,Calm,Calm,-,N/A,,Clear,0,2014-02-09 09:15:00
3:35 AM,48.2,29.3,48,30.02,10.0,SSW,3.5,-,N/A,,Clear,200,2014-02-09 09:35:00
3:55 AM,47.8,29.8,50,30.02,10.0,SW,8.1,-,N/A,,Clear,220,2014-02-09 09:55:00
4:15 AM,50.0,29.3,45,30.01,10.0,SW,3.5,-,N/A,,Clear,230,2014-02-09 10:15:00
4:35 AM,50.4,29.7,45,30.00,10.0,SW,9.2,-,N/A,,Clear,220,2014-02-09 10:35:00
4:55 AM,50.4,29.7,45,30.00,10.0,SW,8.1,-,N/A,,Clear,220,2014-02-09 10:55:00
5:15 AM,50.0,30.0,46,30.00,10.0,SW,5.8,-,N/A,,Clear,230,2014-02-09 11:15:00
5:35 AM,50.9,30.2,45,30.00,10.0,SW,8.1,-,N/A,,Clear,230,2014-02-09 11:35:00
5:55 AM,51.3,31.1,46,30.00,10.0,WSW,9.2,-,N/A,,Clear,240,2014-02-09 11:55:00
6:15 AM,52.0,31.1,45,30.00,10.0,WSW,13.8,18.4,N/A,,Clear,240,2014-02-09 12:15:00
6:35 AM,51.8,31.5,46,30.00,10.0,WSW,15.0,21.9,N/A,,Clear,240,2014-02-09 12:35:00
6:55 AM,50.9,32.0,48,30.00,10.0,WSW,16.1,20.7,N/A,,Clear,240,2014-02-09 12:55:00
7:15 AM,50.9,32.0,48,30.00,10.0,WSW,15.0,19.6,N/A,,Clear,240,2014-02-09 13:15:00
7:35 AM,50.4,32.0,49,30.00,10.0,WSW,16.1,20.7,N/A,,Clear,250,2014-02-09 13:35:00
7:55 AM,50.0,32.0,50,30.01,10.0,WSW,13.8,-,N/A,,Clear,250,2014-02-09 13:55:00
8:15 AM,51.1,32.2,48,30.02,10.0,WSW,12.7,-,N/A,,Clear,250,2014-02-09 14:15:00
8:35 AM,54.5,32.9,44,30.02,10.0,West,12.7,-,N/A,,Clear,260,2014-02-09 14:35:00
8:55 AM,56.7,32.5,40,30.03,10.0,West,11.5,16.1,N/A,,Clear,270,2014-02-09 14:55:00
9:15 AM,58.5,32.4,37,30.02,10.0,WSW,8.1,16.1,N/A,,Clear,240,2014-02-09 15:15:00
9:35 AM,59.9,32.2,35,30.02,10.0,WSW,8.1,-,N/A,,Clear,240,2014-02-09 15:35:00
9:55 AM,60.6,32.0,34,30.03,10.0,WSW,5.8,-,N/A,,Clear,250,2014-02-09 15:55:00
10:15 AM,60.1,32.0,35,30.04,10.0,West,9.2,-,N/A,,Clear,280,2014-02-09 16:15:00
10:35 AM,61.3,32.4,34,30.04,10.0,West,4.6,-,N/A,,Clear,280,2014-02-09 16:35:00
10:55 AM,62.4,32.2,32,30.05,10.0,WNW,8.1,-,N/A,,Clear,300,2014-02-09 16:55:00
11:35 AM,64.4,32.0,30,30.04,10.0,NNW,3.5,-,N/A,,Clear,340,2014-02-09 17:35:00
11:55 AM,66.4,32.0,28,30.02,10.0,SW,5.8,-,N/A,,Clear,230,2014-02-09 17:55:00
12:15 PM,67.8,32.5,27,30.02,10.0,NNW,4.6,-,N/A,,Clear,340,2014-02-09 18:15:00
12:35 PM,67.1,36.0,32,30.01,10.0,North,5.8,-,N/A,,Clear,10,2014-02-09 18:35:00
12:55 PM,67.1,36.1,32,30.00,10.0,North,6.9,-,N/A,,Clear,10,2014-02-09 18:55:00
1:15 PM,67.6,35.8,31,29.99,10.0,NNE,6.9,-,N/A,,Clear,30,2014-02-09 19:15:00
1:35 PM,67.8,35.2,30,29.98,10.0,NE,5.8,-,N/A,,Clear,50,2014-02-09 19:35:00
1:55 PM,68.2,35.4,30,29.97,10.0,NE,5.8,-,N/A,,Clear,50,2014-02-09 19:55:00
2:15 PM,68.5,35.2,29,29.96,10.0,NE,3.5,-,N/A,,Clear,40,2014-02-09 20:15:00
2:35 PM,69.4,35.1,28,29.95,10.0,ENE,3.5,-,N/A,,Clear,70,2014-02-09 20:35:00
2:55 PM,69.4,34.9,28,29.95,10.0,NE,4.6,-,N/A,,Clear,50,2014-02-09 20:55:00
3:15 PM,68.9,36.9,31,29.95,10.0,NE,9.2,-,N/A,,Clear,50,2014-02-09 21:15:00
3:35 PM,66.7,38.8,36,29.96,10.0,NNE,17.3,-,N/A,,Clear,20,2014-02-09 21:35:00
3:55 PM,61.3,38.5,43,29.96,10.0,North,13.8,-,N/A,,Clear,360,2014-02-09 21:55:00
4:15 PM,60.1,38.3,44,29.97,10.0,NNE,19.6,26.5,N/A,,Clear,30,2014-02-09 22:15:00
4:35 PM,57.4,38.1,49,29.98,10.0,NNE,18.4,-,N/A,,Clear,20,2014-02-09 22:35:00
4:55 PM,54.1,37.6,54,29.99,10.0,NNE,13.8,21.9,N/A,,Clear,20,2014-02-09 22:55:00
5:15 PM,52.7,37.2,56,30.01,10.0,NNE,15.0,-,N/A,,Clear,30,2014-02-09 23:15:00
5:35 PM,50.0,37.8,63,30.01,10.0,NNE,16.1,-,N/A,,Clear,20,2014-02-09 23:35:00
5:55 PM,47.3,37.8,69,30.02,10.0,NNE,13.8,-,N/A,,Clear,20,2014-02-09 23:55:00
6:15 PM,45.3,37.8,75,30.02,10.0,NNE,11.5,-,N/A,,Clear,20,2014-02-10 00:15:00
6:35 PM,43.7,37.4,78,30.04,10.0,NNE,11.5,-,N/A,,Clear,20,2014-02-10 00:35:00
6:55 PM,42.4,37.4,82,30.04,10.0,North,11.5,-,N/A,,Clear,10,2014-02-10 00:55:00
7:15 PM,41.9,37.6,85,30.05,10.0,NNE,12.7,-,N/A,,Scattered Clouds,20,2014-02-10 01:15:00
7:35 PM,42.1,37.4,83,30.05,10.0,NNE,13.8,18.4,N/A,,Overcast,20,2014-02-10 01:35:00
7:55 PM,41.5,37.4,85,30.06,10.0,NNE,15.0,20.7,N/A,,Overcast,20,2014-02-10 01:55:00
8:15 PM,40.6,36.7,86,30.07,10.0,NNE,11.5,-,N/A,,Overcast,20,2014-02-10 02:15:00
8:35 PM,40.1,36.5,87,30.06,10.0,NNE,10.4,-,N/A,,Overcast,30,2014-02-10 02:35:00
8:55 PM,40.1,36.9,88,30.07,10.0,NNE,12.7,-,N/A,,Overcast,30,2014-02-10 02:55:00
9:15 PM,39.6,37.0,91,30.07,10.0,NNE,11.5,16.1,N/A,,Overcast,30,2014-02-10 03:15:00
9:35 PM,39.7,37.4,91,30.08,10.0,NE,9.2,-,N/A,,Overcast,40,2014-02-10 03:35:00
9:55 PM,39.9,37.6,91,30.08,7.0,NE,10.4,-,N/A,,Overcast,40,2014-02-10 03:55:00
10:15 PM,40.1,37.8,91,30.08,7.0,NNE,10.4,-,N/A,,Overcast,30,2014-02-10 04:15:00
10:35 PM,40.1,37.8,91,30.09,7.0,NNE,10.4,-,N/A,,Overcast,30,2014-02-10 04:35:00
10:55 PM,39.9,37.8,92,30.09,7.0,NNE,10.4,-,N/A,,Overcast,30,2014-02-10 04:55:00
11:15 PM,39.4,38.3,96,30.10,5.0,NNE,9.2,-,N/A,,Overcast,20,2014-02-10 05:15:00
11:35 PM,38.8,38.3,98,30.11,4.0,NNE,10.4,-,N/A,,Overcast,30,2014-02-10 05:35:00
11:55 PM,38.3,37.6,97,30.11,5.0,NNE,11.5,19.6,N/A,,Overcast,20,2014-02-10 05:55:00